User: anonymous   Login
Location: Boursonne
(49.2024°N, 3.0468°E)
Time: 16:22:53
(UTC+00:00)
Language:

Cosmos 1943 Rocket - Orbit

View from above orbital plane
View from above orbital plane
View from above satellite
View from above satellite

Ground track
Ground track

The orbit data is extracted from the following two-line orbital elements,

1 19120U 88039B   21135.51204489 -.00000067  00000-0 -88343-5 0  9992
2 19120  71.0145 186.8643 0021236 163.8887 196.2918 14.19223619708766
Epoch (UTC): 15 May 2021 12:17:20
Eccentricity: 0.0021236
inclination: 71.0145°
perigee height: 812 km
apogee height: 843 km
right ascension of ascending node: 186.8643°
argument of perigee: 163.8887°
revolutions per day: 14.19223619
mean anomaly at epoch: 196.2918°
orbit number at epoch: 70876

The dashed part of the orbit path shows where the satellite is in the earth's shadow,  

DLR